Location: Sungai Dangang
(2.7500°N, 113.8333°E)
Time: 22:08:47
(UTC+00:00)

ATLAS 3B R/B - Pass Details

Date: 16 May 2021
Orbit: 1006 x 1189 km, 63.8° (Epoch: 13 June)

Event Time Altitude Azimuth Distance (km) Brightness Sun altitude
Exits shadow 21:49:30 - 260° (W) 3,053 4.4 -6.5°
Reaches altitude 10° 21:51:11 10° 273° (W) 2,776 4.3 -6.1°
Maximum altitude 21:53:33 12° 295° (WNW) 2,618 4.3 -5.6°
Drops below altitude 10° 21:55:56 10° 317° (NW) 2,770 4.7 -5.0°
Sets 22:00:32 0° 347° (NNW) 3,728 5.6 -3.9°
